Year,Month,Day,Hour,Minute,Value (Times are PST for temperature in C)
2010,04,22,00,00,5.10
2010,04,22,00,01,5.10
2010,04,22,00,02,5.00
2010,04,22,00,03,5.00
2010,04,22,00,04,4.90
2010,04,22,00,05,4.90
2010,04,22,00,06,4.90
2010,04,22,00,07,4.80
2010,04,22,00,08,4.80
2010,04,22,00,09,4.80
2010,04,22,00,10,4.80
2010,04,22,00,11,4.80
2010,04,22,00,12,4.70
2010,04,22,00,13,4.70
2010,04,22,00,14,4.70
2010,04,22,00,15,4.70
2010,04,22,00,16,4.70
2010,04,22,00,17,4.70
2010,04,22,00,18,4.70
2010,04,22,00,19,4.70
2010,04,22,00,20,4.70
2010,04,22,00,21,4.70
2010,04,22,00,22,4.70
2010,04,22,00,23,4.70
2010,04,22,00,24,4.70
2010,04,22,00,25,4.70
2010,04,22,00,26,4.70
2010,04,22,00,27,4.60
2010,04,22,00,28,4.60
2010,04,22,00,29,4.60
2010,04,22,00,30,4.50
2010,04,22,00,31,4.50
2010,04,22,00,32,4.40
2010,04,22,00,33,4.40
2010,04,22,00,34,4.40
2010,04,22,00,35,4.30
2010,04,22,00,36,4.30
2010,04,22,00,37,4.30
2010,04,22,00,38,4.30
2010,04,22,00,39,4.30
2010,04,22,00,40,4.20
2010,04,22,00,41,4.20
2010,04,22,00,42,4.20
2010,04,22,00,43,4.20
2010,04,22,00,44,4.20
2010,04,22,00,45,4.20
2010,04,22,00,46,4.20
2010,04,22,00,47,4.10
2010,04,22,00,48,4.10
2010,04,22,00,49,4.10
2010,04,22,00,50,4.10
2010,04,22,00,51,4.10
2010,04,22,00,52,4.10
2010,04,22,00,53,4.10
2010,04,22,00,54,4.00
2010,04,22,00,55,4.10
2010,04,22,00,56,4.00
2010,04,22,00,57,4.00
2010,04,22,00,58,4.10
2010,04,22,00,59,4.10
2010,04,22,01,00,4.20
2010,04,22,01,01,4.30
2010,04,22,01,02,4.40
2010,04,22,01,03,4.40
2010,04,22,01,04,4.40
2010,04,22,01,05,4.40
2010,04,22,01,06,4.40
2010,04,22,01,07,4.40
2010,04,22,01,08,4.40
2010,04,22,01,09,4.40
2010,04,22,01,10,4.40
2010,04,22,01,11,4.40
2010,04,22,01,12,4.40
2010,04,22,01,13,4.30
2010,04,22,01,14,4.30
2010,04,22,01,15,4.30
2010,04,22,01,16,4.30
2010,04,22,01,17,4.30
2010,04,22,01,18,4.20
2010,04,22,01,19,4.20
2010,04,22,01,20,4.20
2010,04,22,01,21,4.20
2010,04,22,01,22,4.20
2010,04,22,01,23,4.20
2010,04,22,01,24,4.20
2010,04,22,01,25,4.20
2010,04,22,01,26,4.20
2010,04,22,01,27,4.30
2010,04,22,01,28,4.30
2010,04,22,01,29,4.30
2010,04,22,01,30,4.30
2010,04,22,01,31,4.30
2010,04,22,01,32,4.30
2010,04,22,01,33,4.30
2010,04,22,01,34,4.30
2010,04,22,01,35,4.30
2010,04,22,01,36,4.30
2010,04,22,01,37,4.40
2010,04,22,01,38,4.40
2010,04,22,01,39,4.40
2010,04,22,01,40,4.50
2010,04,22,01,41,4.60
2010,04,22,01,42,4.60
2010,04,22,01,43,4.80
2010,04,22,01,44,4.80
2010,04,22,01,45,4.90
2010,04,22,01,46,5.10
2010,04,22,01,47,5.10
2010,04,22,01,48,5.30
2010,04,22,01,49,5.40
2010,04,22,01,50,5.50
2010,04,22,01,51,5.60
2010,04,22,01,52,5.70
2010,04,22,01,53,5.70
2010,04,22,01,54,5.80
2010,04,22,01,55,5.80
2010,04,22,01,56,5.80
2010,04,22,01,57,5.80
2010,04,22,01,58,5.80
2010,04,22,01,59,5.90
2010,04,22,02,00,6.00
2010,04,22,02,01,6.10
2010,04,22,02,02,6.10
2010,04,22,02,03,6.10
2010,04,22,02,04,6.10
2010,04,22,02,05,6.20
2010,04,22,02,06,6.30
2010,04,22,02,07,6.30
2010,04,22,02,08,6.30
2010,04,22,02,09,6.30
2010,04,22,02,10,6.40
2010,04,22,02,11,6.50
2010,04,22,02,12,6.60
2010,04,22,02,13,6.60
2010,04,22,02,14,6.60
2010,04,22,02,15,6.60
2010,04,22,02,16,6.50
2010,04,22,02,17,6.60
2010,04,22,02,18,6.60
2010,04,22,02,19,6.60
2010,04,22,02,20,6.60
2010,04,22,02,21,6.60
2010,04,22,02,22,6.60
2010,04,22,02,23,6.60
2010,04,22,02,24,6.60
2010,04,22,02,25,6.60
2010,04,22,02,26,6.60
2010,04,22,02,27,6.60
2010,04,22,02,28,6.50
2010,04,22,02,29,6.60
2010,04,22,02,30,6.60
2010,04,22,02,31,6.60
2010,04,22,02,32,6.60
2010,04,22,02,33,6.70
2010,04,22,02,34,6.70
2010,04,22,02,35,6.70
2010,04,22,02,36,6.70
2010,04,22,02,37,6.70
2010,04,22,02,38,6.70
2010,04,22,02,39,6.60
2010,04,22,02,40,6.60
2010,04,22,02,41,6.50
2010,04,22,02,42,6.30
2010,04,22,02,43,6.20
2010,04,22,02,44,6.10
2010,04,22,02,45,6.10
2010,04,22,02,46,6.00
2010,04,22,02,47,5.90
2010,04,22,02,48,5.90
2010,04,22,02,49,5.90
2010,04,22,02,50,5.80
2010,04,22,02,51,5.80
2010,04,22,02,52,5.70
2010,04,22,02,53,5.70
2010,04,22,02,54,5.70
2010,04,22,02,55,5.70
2010,04,22,02,56,5.60
2010,04,22,02,57,5.60
2010,04,22,02,58,5.50
2010,04,22,02,59,5.50
2010,04,22,03,00,5.40
2010,04,22,03,01,5.40
2010,04,22,03,02,5.40
2010,04,22,03,03,5.40
2010,04,22,03,04,5.40
2010,04,22,03,05,5.30
2010,04,22,03,06,5.30
2010,04,22,03,07,5.30
2010,04,22,03,08,5.20
2010,04,22,03,09,5.20
2010,04,22,03,10,5.10
2010,04,22,03,11,5.10
2010,04,22,03,12,5.10
2010,04,22,03,13,5.10
2010,04,22,03,14,5.00
2010,04,22,03,15,5.10
2010,04,22,03,16,5.20
2010,04,22,03,17,5.30
2010,04,22,03,18,5.30
2010,04,22,03,19,5.30
2010,04,22,03,20,5.30
2010,04,22,03,21,5.30
2010,04,22,03,22,5.30
2010,04,22,03,23,5.40
2010,04,22,03,24,5.40
2010,04,22,03,25,5.40
2010,04,22,03,26,5.40
2010,04,22,03,27,5.40
2010,04,22,03,28,5.30
2010,04,22,03,29,5.30
2010,04,22,03,30,5.30
2010,04,22,03,31,5.20
2010,04,22,03,32,5.20
2010,04,22,03,33,5.10
2010,04,22,03,34,5.10
2010,04,22,03,35,5.10
2010,04,22,03,36,5.10
2010,04,22,03,37,5.20
2010,04,22,03,38,5.10
2010,04,22,03,39,5.10
2010,04,22,03,40,5.00
2010,04,22,03,41,5.10
2010,04,22,03,42,5.10
2010,04,22,03,43,5.10
2010,04,22,03,44,5.10
2010,04,22,03,45,5.10
2010,04,22,03,46,5.10
2010,04,22,03,47,5.10
2010,04,22,03,48,5.10
2010,04,22,03,49,5.10
2010,04,22,03,50,5.10
2010,04,22,03,51,5.10
2010,04,22,03,52,5.10
2010,04,22,03,53,5.00
2010,04,22,03,54,5.00
2010,04,22,03,55,4.90
2010,04,22,03,56,4.80
2010,04,22,03,57,4.80
2010,04,22,03,58,4.80
2010,04,22,03,59,4.70
2010,04,22,04,00,4.70
2010,04,22,04,01,4.60
2010,04,22,04,02,4.60
2010,04,22,04,03,4.50
2010,04,22,04,04,4.50
2010,04,22,04,05,4.40
2010,04,22,04,06,4.40
2010,04,22,04,07,4.40
2010,04,22,04,08,4.30
2010,04,22,04,09,4.30
2010,04,22,04,10,4.30
2010,04,22,04,11,4.30
2010,04,22,04,12,4.30
2010,04,22,04,13,4.30
2010,04,22,04,14,4.30
2010,04,22,04,15,4.20
2010,04,22,04,16,4.20
2010,04,22,04,17,4.20
2010,04,22,04,18,4.20
2010,04,22,04,19,4.10
2010,04,22,04,20,4.10
2010,04,22,04,21,4.10
2010,04,22,04,22,4.10
2010,04,22,04,23,4.00
2010,04,22,04,24,4.00
2010,04,22,04,25,4.00
2010,04,22,04,26,3.90
2010,04,22,04,27,3.90
2010,04,22,04,28,3.90
2010,04,22,04,29,3.90
2010,04,22,04,30,3.90
2010,04,22,04,31,3.90
2010,04,22,04,32,4.00
2010,04,22,04,33,4.00
2010,04,22,04,34,4.00
2010,04,22,04,35,3.90
2010,04,22,04,36,3.90
2010,04,22,04,37,3.80
2010,04,22,04,38,3.80
2010,04,22,04,39,3.70
2010,04,22,04,40,3.70
2010,04,22,04,41,3.70
2010,04,22,04,42,3.60
2010,04,22,04,43,3.60
2010,04,22,04,44,3.60
2010,04,22,04,45,3.60
2010,04,22,04,46,3.60
2010,04,22,04,47,3.50
2010,04,22,04,48,3.50
2010,04,22,04,49,3.50
2010,04,22,04,50,3.50
2010,04,22,04,51,3.40
2010,04,22,04,52,3.40
2010,04,22,04,53,3.40
2010,04,22,04,54,3.40
2010,04,22,04,55,3.40
2010,04,22,04,56,3.30
2010,04,22,04,57,3.30
2010,04,22,04,58,3.30
2010,04,22,04,59,3.30
2010,04,22,05,00,3.30
2010,04,22,05,01,3.30
2010,04,22,05,02,3.30
2010,04,22,05,03,3.30
2010,04,22,05,04,3.40
2010,04,22,05,05,3.40
2010,04,22,05,06,3.30
2010,04,22,05,07,3.30
2010,04,22,05,08,3.30
2010,04,22,05,09,3.30
2010,04,22,05,10,3.30
2010,04,22,05,11,3.30
2010,04,22,05,12,3.30
2010,04,22,05,13,3.30
2010,04,22,05,14,3.20
2010,04,22,05,15,3.20
2010,04,22,05,16,3.20
2010,04,22,05,17,3.20
2010,04,22,05,18,3.20
2010,04,22,05,19,3.30
2010,04,22,05,20,3.20
2010,04,22,05,21,3.20
2010,04,22,05,22,3.20
2010,04,22,05,23,3.20
2010,04,22,05,24,3.20
2010,04,22,05,25,3.20
2010,04,22,05,26,3.20
2010,04,22,05,27,3.10
2010,04,22,05,28,3.10
2010,04,22,05,29,3.10
2010,04,22,05,30,3.20
2010,04,22,05,31,3.20
2010,04,22,05,32,3.20
2010,04,22,05,33,3.30
2010,04,22,05,34,3.30
2010,04,22,05,35,3.30
2010,04,22,05,36,3.40
2010,04,22,05,37,3.40
2010,04,22,05,38,3.50
2010,04,22,05,39,3.50
2010,04,22,05,40,3.40
2010,04,22,05,41,3.50
2010,04,22,05,42,3.60
2010,04,22,05,43,3.70
2010,04,22,05,44,3.80
2010,04,22,05,45,3.90
2010,04,22,05,46,4.00
2010,04,22,05,47,4.00
2010,04,22,05,48,4.00
2010,04,22,05,49,4.10
2010,04,22,05,50,4.00
2010,04,22,05,51,4.00
2010,04,22,05,52,4.00
2010,04,22,05,53,4.10
2010,04,22,05,54,4.10
2010,04,22,05,55,4.10
2010,04,22,05,56,4.10
2010,04,22,05,57,4.10
2010,04,22,05,58,4.10
2010,04,22,05,59,4.10
2010,04,22,06,00,4.10
2010,04,22,06,01,4.10
2010,04,22,06,02,4.20
2010,04,22,06,03,4.20
2010,04,22,06,04,4.20
2010,04,22,06,05,4.20
2010,04,22,06,06,4.20
2010,04,22,06,07,4.20
2010,04,22,06,08,4.30
2010,04,22,06,09,4.20
2010,04,22,06,10,4.20
2010,04,22,06,11,4.20
2010,04,22,06,12,4.20
2010,04,22,06,13,4.10
2010,04,22,06,14,4.10
2010,04,22,06,15,4.00
2010,04,22,06,16,4.00
2010,04,22,06,17,3.90
2010,04,22,06,18,3.90
2010,04,22,06,19,3.80
2010,04,22,06,20,3.80
2010,04,22,06,21,3.80
2010,04,22,06,22,3.80
2010,04,22,06,23,3.80
2010,04,22,06,24,3.80
2010,04,22,06,25,3.80
2010,04,22,06,26,3.80
2010,04,22,06,27,3.80
2010,04,22,06,28,3.70
2010,04,22,06,29,3.70
2010,04,22,06,30,3.80
2010,04,22,06,31,3.80
2010,04,22,06,32,3.80
2010,04,22,06,33,3.80
2010,04,22,06,34,3.90
2010,04,22,06,35,3.90
2010,04,22,06,36,3.90
2010,04,22,06,37,3.90
2010,04,22,06,38,3.90
2010,04,22,06,39,4.00
2010,04,22,06,40,4.00
2010,04,22,06,41,4.00
2010,04,22,06,42,4.10
2010,04,22,06,43,4.10
2010,04,22,06,44,4.10
2010,04,22,06,45,4.10
2010,04,22,06,46,4.10
2010,04,22,06,47,4.20
2010,04,22,06,48,4.20
2010,04,22,06,49,4.30
2010,04,22,06,50,4.30
2010,04,22,06,51,4.30
2010,04,22,06,52,4.30
2010,04,22,06,53,4.40
2010,04,22,06,54,4.40
2010,04,22,06,55,4.40
2010,04,22,06,56,4.40
2010,04,22,06,57,4.40
2010,04,22,06,58,4.40
2010,04,22,06,59,4.50
2010,04,22,07,00,4.50
2010,04,22,07,01,4.60
2010,04,22,07,02,4.60
2010,04,22,07,03,4.60
2010,04,22,07,04,4.60
2010,04,22,07,05,4.70
2010,04,22,07,06,4.70
2010,04,22,07,07,4.70
2010,04,22,07,08,4.70
2010,04,22,07,09,4.70
2010,04,22,07,10,4.80
2010,04,22,07,11,4.80
2010,04,22,07,12,4.80
2010,04,22,07,13,4.80
2010,04,22,07,14,4.80
2010,04,22,07,15,4.80
2010,04,22,07,16,4.90
2010,04,22,07,17,4.90
2010,04,22,07,18,4.90
2010,04,22,07,19,5.00
2010,04,22,07,20,5.00
2010,04,22,07,21,5.00
2010,04,22,07,22,5.10
2010,04,22,07,23,5.10
2010,04,22,07,24,5.10
2010,04,22,07,25,5.10
2010,04,22,07,26,5.20
2010,04,22,07,27,5.20
2010,04,22,07,28,5.20
2010,04,22,07,29,5.20
2010,04,22,07,30,5.30
2010,04,22,07,31,5.30
2010,04,22,07,32,5.30
2010,04,22,07,33,5.30
2010,04,22,07,34,5.40
2010,04,22,07,35,5.40
2010,04,22,07,36,5.40
2010,04,22,07,37,5.50
2010,04,22,07,38,5.50
2010,04,22,07,39,5.60
2010,04,22,07,40,5.60
2010,04,22,07,41,5.60
2010,04,22,07,42,5.70
2010,04,22,07,43,5.70
2010,04,22,07,44,5.80
2010,04,22,07,45,5.80
2010,04,22,07,46,5.80
2010,04,22,07,47,5.90
2010,04,22,07,48,5.90
2010,04,22,07,49,5.90
2010,04,22,07,50,6.00
2010,04,22,07,51,6.00
2010,04,22,07,52,6.00
2010,04,22,07,53,6.10
2010,04,22,07,54,6.10
2010,04,22,07,55,6.20
2010,04,22,07,56,6.20
2010,04,22,07,57,6.20
2010,04,22,07,58,6.30
2010,04,22,07,59,6.30
2010,04,22,08,00,6.40
2010,04,22,08,01,6.50
2010,04,22,08,02,6.50
2010,04,22,08,03,6.70
2010,04,22,08,04,6.70
2010,04,22,08,05,6.80
2010,04,22,08,06,6.80
2010,04,22,08,07,6.90
2010,04,22,08,08,6.90
2010,04,22,08,09,7.00
2010,04,22,08,10,7.00
2010,04,22,08,11,7.00
2010,04,22,08,12,7.00
2010,04,22,08,13,6.90
2010,04,22,08,14,6.90
2010,04,22,08,15,6.90
2010,04,22,08,16,6.90
2010,04,22,08,17,6.90
2010,04,22,08,18,6.90
2010,04,22,08,19,6.80
2010,04,22,08,20,6.90
2010,04,22,08,21,6.90
2010,04,22,08,22,6.90
2010,04,22,08,23,6.90
2010,04,22,08,24,7.00
2010,04,22,08,25,7.00
2010,04,22,08,26,7.10
2010,04,22,08,27,7.20
2010,04,22,08,28,7.30
2010,04,22,08,29,7.40
2010,04,22,08,30,7.40
2010,04,22,08,31,7.40
2010,04,22,08,32,7.40
2010,04,22,08,33,7.60
2010,04,22,08,34,7.60
2010,04,22,08,35,7.70
2010,04,22,08,36,7.80
2010,04,22,08,37,7.90
2010,04,22,08,38,8.00
2010,04,22,08,39,8.10
2010,04,22,08,40,8.20
2010,04,22,08,41,8.20
2010,04,22,08,42,8.10
2010,04,22,08,43,8.10
2010,04,22,08,44,8.00
2010,04,22,08,45,7.90
2010,04,22,08,46,7.90
2010,04,22,08,47,7.80
2010,04,22,08,48,7.70
2010,04,22,08,49,7.70
2010,04,22,08,50,7.70
2010,04,22,08,51,7.70
2010,04,22,08,52,7.70
2010,04,22,08,53,7.70
2010,04,22,08,54,7.80
2010,04,22,08,55,7.80
2010,04,22,08,56,7.90
2010,04,22,08,57,7.90
2010,04,22,08,58,8.10
2010,04,22,08,59,8.10
2010,04,22,09,00,8.20
2010,04,22,09,01,8.30
2010,04,22,09,02,8.30
2010,04,22,09,03,8.40
2010,04,22,09,04,8.50
2010,04,22,09,05,8.60
2010,04,22,09,06,8.60
2010,04,22,09,07,8.60
2010,04,22,09,08,8.60
2010,04,22,09,09,8.50
2010,04,22,09,10,8.50
2010,04,22,09,11,8.40
2010,04,22,09,12,8.40
2010,04,22,09,13,8.40
2010,04,22,09,14,8.40
2010,04,22,09,15,8.40
2010,04,22,09,16,8.40
2010,04,22,09,17,8.50
2010,04,22,09,18,8.50
2010,04,22,09,19,8.60
2010,04,22,09,20,8.70
2010,04,22,09,21,8.70
2010,04,22,09,22,8.70
2010,04,22,09,23,8.70
2010,04,22,09,24,8.70
2010,04,22,09,25,8.80
2010,04,22,09,26,8.80
2010,04,22,09,27,8.80
2010,04,22,09,28,8.80
2010,04,22,09,29,8.80
2010,04,22,09,30,8.90
2010,04,22,09,31,8.90
2010,04,22,09,32,8.90
2010,04,22,09,33,9.00
2010,04,22,09,34,9.00
2010,04,22,09,35,9.10
2010,04,22,09,36,9.30
2010,04,22,09,37,9.40
2010,04,22,09,38,9.50
2010,04,22,09,39,9.60
2010,04,22,09,40,9.80
2010,04,22,09,41,9.90
2010,04,22,09,42,9.90
2010,04,22,09,43,9.90
2010,04,22,09,44,10.00
2010,04,22,09,45,10.00
2010,04,22,09,46,10.00
2010,04,22,09,47,10.10
2010,04,22,09,48,10.30
2010,04,22,09,49,10.30
2010,04,22,09,50,10.30
2010,04,22,09,51,10.20
2010,04,22,09,52,10.20
2010,04,22,09,53,10.20
2010,04,22,09,54,10.20
2010,04,22,09,55,10.20
2010,04,22,09,56,10.20
2010,04,22,09,57,10.30
2010,04,22,09,58,10.30
2010,04,22,09,59,10.30
2010,04,22,10,00,10.30
2010,04,22,10,01,10.40
2010,04,22,10,02,10.50
2010,04,22,10,03,10.50
2010,04,22,10,04,10.60
2010,04,22,10,05,10.60
2010,04,22,10,06,10.70
2010,04,22,10,07,10.80
2010,04,22,10,08,10.70
2010,04,22,10,09,10.70
2010,04,22,10,10,10.70
2010,04,22,10,11,10.70
2010,04,22,10,12,10.70
2010,04,22,10,13,10.70
2010,04,22,10,14,10.70
2010,04,22,10,15,10.70
2010,04,22,10,16,10.70
2010,04,22,10,17,10.70
2010,04,22,10,18,10.80
2010,04,22,10,19,10.80
2010,04,22,10,20,10.80
2010,04,22,10,21,10.70
2010,04,22,10,22,10.50
2010,04,22,10,23,10.50
2010,04,22,10,24,10.40
2010,04,22,10,25,10.50
2010,04,22,10,26,10.50
2010,04,22,10,27,10.60
2010,04,22,10,28,10.70
2010,04,22,10,29,10.80
2010,04,22,10,30,10.80
2010,04,22,10,31,10.80
2010,04,22,10,32,10.80
2010,04,22,10,33,10.80
2010,04,22,10,34,10.80
2010,04,22,10,35,10.80
2010,04,22,10,36,10.80
2010,04,22,10,37,10.80
2010,04,22,10,38,10.80
2010,04,22,10,39,10.80
2010,04,22,10,40,10.90
2010,04,22,10,41,10.80
2010,04,22,10,42,10.80
2010,04,22,10,43,10.80
2010,04,22,10,44,10.70
2010,04,22,10,45,10.70
2010,04,22,10,46,10.80
2010,04,22,10,47,10.80
2010,04,22,10,48,10.80
2010,04,22,10,49,10.90
2010,04,22,10,50,11.00
2010,04,22,10,51,11.00
2010,04,22,10,52,11.10
2010,04,22,10,53,11.10
2010,04,22,10,54,11.00
2010,04,22,10,55,11.00
2010,04,22,10,56,11.00
2010,04,22,10,57,10.90
2010,04,22,10,58,10.90
2010,04,22,10,59,10.90
2010,04,22,11,00,10.80
2010,04,22,11,01,10.80
2010,04,22,11,02,10.80
2010,04,22,11,03,10.90
2010,04,22,11,04,10.90
2010,04,22,11,05,11.00
2010,04,22,11,06,11.00
2010,04,22,11,07,11.10
2010,04,22,11,08,11.20
2010,04,22,11,09,11.30
2010,04,22,11,10,11.40
2010,04,22,11,11,11.50
2010,04,22,11,12,11.50
2010,04,22,11,13,11.60
2010,04,22,11,14,11.60
2010,04,22,11,15,11.60
2010,04,22,11,16,11.50
2010,04,22,11,17,11.50
2010,04,22,11,18,11.50
2010,04,22,11,19,11.50
2010,04,22,11,20,11.50
2010,04,22,11,21,11.60
2010,04,22,11,22,11.60
2010,04,22,11,23,11.50
2010,04,22,11,24,11.40
2010,04,22,11,25,11.40
2010,04,22,11,26,11.40
2010,04,22,11,27,11.40
2010,04,22,11,28,11.50
2010,04,22,11,29,11.50
2010,04,22,11,30,11.50
2010,04,22,11,31,11.60
2010,04,22,11,32,11.60
2010,04,22,11,33,11.60
2010,04,22,11,34,11.60
2010,04,22,11,35,11.70
2010,04,22,11,36,11.80
2010,04,22,11,37,11.90
2010,04,22,11,38,11.90
2010,04,22,11,39,12.00
2010,04,22,11,40,11.90
2010,04,22,11,41,11.90
2010,04,22,11,42,11.90
2010,04,22,11,43,11.80
2010,04,22,11,44,11.60
2010,04,22,11,45,11.50
2010,04,22,11,46,11.60
2010,04,22,11,47,11.60
2010,04,22,11,48,11.70
2010,04,22,11,49,11.60
2010,04,22,11,50,11.60
2010,04,22,11,51,11.60
2010,04,22,11,52,11.60
2010,04,22,11,53,11.70
2010,04,22,11,54,11.80
2010,04,22,11,55,11.90
2010,04,22,11,56,12.00
2010,04,22,11,57,12.00
2010,04,22,11,58,12.00
2010,04,22,11,59,11.80
2010,04,22,12,00,11.70
2010,04,22,12,01,11.60
2010,04,22,12,02,11.50
2010,04,22,12,03,11.40
2010,04,22,12,04,11.30
2010,04,22,12,05,11.30
2010,04,22,12,06,11.30
2010,04,22,12,07,11.30
2010,04,22,12,08,11.50
2010,04,22,12,09,11.60
2010,04,22,12,10,11.70
2010,04,22,12,11,11.80
2010,04,22,12,12,11.90
2010,04,22,12,13,11.90
2010,04,22,12,14,11.90
2010,04,22,12,15,11.90
2010,04,22,12,16,11.90
2010,04,22,12,17,11.90
2010,04,22,12,18,12.00
2010,04,22,12,19,12.10
2010,04,22,12,20,12.20
2010,04,22,12,21,12.20
2010,04,22,12,22,12.20
2010,04,22,12,23,12.20
2010,04,22,12,24,12.20
2010,04,22,12,25,12.20
2010,04,22,12,26,12.20
2010,04,22,12,27,12.20
2010,04,22,12,28,12.20
2010,04,22,12,29,12.10
2010,04,22,12,30,12.10
2010,04,22,12,31,12.10
2010,04,22,12,32,12.20
2010,04,22,12,33,12.20
2010,04,22,12,34,12.30
2010,04,22,12,35,12.20
2010,04,22,12,36,12.30
2010,04,22,12,37,12.40
2010,04,22,12,38,12.40
2010,04,22,12,39,12.40
2010,04,22,12,40,12.50
2010,04,22,12,41,12.70
2010,04,22,12,42,12.80
2010,04,22,12,43,12.80
2010,04,22,12,44,12.90
2010,04,22,12,45,13.00
2010,04,22,12,46,12.90
2010,04,22,12,47,12.70
2010,04,22,12,48,12.60
2010,04,22,12,49,12.70
2010,04,22,12,50,12.70
2010,04,22,12,51,12.80
2010,04,22,12,52,12.80
2010,04,22,12,53,12.90
2010,04,22,12,54,12.80
2010,04,22,12,55,12.80
2010,04,22,12,56,12.70
2010,04,22,12,57,12.60
2010,04,22,12,58,12.70
2010,04,22,12,59,12.70
2010,04,22,13,00,12.60
2010,04,22,13,01,12.50
2010,04,22,13,02,12.40
2010,04,22,13,03,12.40
2010,04,22,13,04,12.40
2010,04,22,13,05,12.40
2010,04,22,13,06,12.20
2010,04,22,13,07,12.20
2010,04,22,13,08,12.20
2010,04,22,13,09,12.30
2010,04,22,13,10,12.30
2010,04,22,13,11,12.30
2010,04,22,13,12,12.30
2010,04,22,13,13,12.40
2010,04,22,13,14,12.40
2010,04,22,13,15,12.40
2010,04,22,13,16,12.40
2010,04,22,13,17,12.50
2010,04,22,13,18,12.60
2010,04,22,13,19,12.50
2010,04,22,13,20,12.50
2010,04,22,13,21,12.50
2010,04,22,13,22,12.50
2010,04,22,13,23,12.60
2010,04,22,13,24,12.50
2010,04,22,13,25,12.50
2010,04,22,13,26,12.40
2010,04,22,13,27,12.40
2010,04,22,13,28,12.40
2010,04,22,13,29,12.30
2010,04,22,13,30,12.30
2010,04,22,13,31,12.30
2010,04,22,13,32,12.30
2010,04,22,13,33,12.40
2010,04,22,13,34,12.40
2010,04,22,13,35,12.40
2010,04,22,13,36,12.40
2010,04,22,13,37,12.40
2010,04,22,13,38,12.40
2010,04,22,13,39,12.50
2010,04,22,13,40,12.50
2010,04,22,13,41,12.40
2010,04,22,13,42,12.30
2010,04,22,13,43,12.30
2010,04,22,13,44,12.40
2010,04,22,13,45,12.50
2010,04,22,13,46,12.60
2010,04,22,13,47,12.70
2010,04,22,13,48,12.80
2010,04,22,13,49,12.80
2010,04,22,13,50,12.80
2010,04,22,13,51,12.80
2010,04,22,13,52,12.80
2010,04,22,13,53,12.80
2010,04,22,13,54,12.90
2010,04,22,13,55,13.00
2010,04,22,13,56,13.10
2010,04,22,13,57,13.10
2010,04,22,13,58,13.20
2010,04,22,13,59,13.10
2010,04,22,14,00,13.00
2010,04,22,14,01,13.00
2010,04,22,14,02,13.00
2010,04,22,14,03,13.00
2010,04,22,14,04,13.10
2010,04,22,14,05,13.20
2010,04,22,14,06,13.20
2010,04,22,14,07,13.10
2010,04,22,14,08,13.10
2010,04,22,14,09,13.10
2010,04,22,14,10,13.00
2010,04,22,14,11,13.00
2010,04,22,14,12,13.00
2010,04,22,14,13,13.10
2010,04,22,14,14,13.20
2010,04,22,14,15,13.20
2010,04,22,14,16,13.30
2010,04,22,14,17,13.30
2010,04,22,14,18,13.10
2010,04,22,14,19,13.00
2010,04,22,14,20,12.90
2010,04,22,14,21,12.80
2010,04,22,14,22,12.90
2010,04,22,14,23,12.90
2010,04,22,14,24,13.00
2010,04,22,14,25,13.10
2010,04,22,14,26,13.20
2010,04,22,14,27,13.20
2010,04,22,14,28,13.20
2010,04,22,14,29,13.30
2010,04,22,14,30,13.30
2010,04,22,14,31,13.30
2010,04,22,14,32,13.30
2010,04,22,14,33,13.30
2010,04,22,14,34,13.30
2010,04,22,14,35,13.30
2010,04,22,14,36,13.30
2010,04,22,14,37,13.40
2010,04,22,14,38,13.40
2010,04,22,14,39,13.50
2010,04,22,14,40,13.40
2010,04,22,14,41,13.40
2010,04,22,14,42,13.20
2010,04,22,14,43,13.00
2010,04,22,14,44,12.90
2010,04,22,14,45,12.90
2010,04,22,14,46,12.90
2010,04,22,14,47,12.90
2010,04,22,14,48,12.80
2010,04,22,14,49,12.80
2010,04,22,14,50,12.80
2010,04,22,14,51,12.90
2010,04,22,14,52,13.00
2010,04,22,14,53,13.00
2010,04,22,14,54,13.10
2010,04,22,14,55,13.30
2010,04,22,14,56,13.40
2010,04,22,14,57,13.40
2010,04,22,14,58,13.40
2010,04,22,14,59,13.40
2010,04,22,15,00,13.50
2010,04,22,15,01,13.50
2010,04,22,15,02,13.30
2010,04,22,15,03,13.20
2010,04,22,15,04,13.10
2010,04,22,15,05,13.00
2010,04,22,15,06,12.90
2010,04,22,15,07,12.90
2010,04,22,15,08,12.90
2010,04,22,15,09,12.90
2010,04,22,15,10,12.90
2010,04,22,15,11,12.90
2010,04,22,15,12,12.90
2010,04,22,15,13,12.90
2010,04,22,15,14,12.90
2010,04,22,15,15,13.00
2010,04,22,15,16,13.00
2010,04,22,15,17,13.10
2010,04,22,15,18,13.20
2010,04,22,15,19,13.30
2010,04,22,15,20,13.30
2010,04,22,15,21,13.20
2010,04,22,15,22,13.20
2010,04,22,15,23,13.20
2010,04,22,15,24,13.10
2010,04,22,15,25,13.10
2010,04,22,15,26,13.00
2010,04,22,15,27,13.00
2010,04,22,15,28,12.90
2010,04,22,15,29,12.90
2010,04,22,15,30,12.90
2010,04,22,15,31,13.00
2010,04,22,15,32,13.10
2010,04,22,15,33,13.10
2010,04,22,15,34,13.20
2010,04,22,15,35,13.10
2010,04,22,15,36,13.10
2010,04,22,15,37,13.10
2010,04,22,15,38,13.00
2010,04,22,15,39,13.00
2010,04,22,15,40,13.10
2010,04,22,15,41,13.00
2010,04,22,15,42,12.80
2010,04,22,15,43,12.60
2010,04,22,15,44,12.50
2010,04,22,15,45,12.30
2010,04,22,15,46,12.30
2010,04,22,15,47,12.20
2010,04,22,15,48,12.20
2010,04,22,15,49,12.20
2010,04,22,15,50,12.20
2010,04,22,15,51,12.20
2010,04,22,15,52,12.10
2010,04,22,15,53,12.10
2010,04,22,15,54,12.10
2010,04,22,15,55,12.10
2010,04,22,15,56,12.10
2010,04,22,15,57,12.10
2010,04,22,15,58,12.00
2010,04,22,15,59,12.00
2010,04,22,16,00,11.90
2010,04,22,16,01,11.80
2010,04,22,16,02,11.70
2010,04,22,16,03,11.60
2010,04,22,16,04,11.60
2010,04,22,16,05,11.60
2010,04,22,16,06,11.60
2010,04,22,16,07,11.50
2010,04,22,16,08,11.50
2010,04,22,16,09,11.40
2010,04,22,16,10,11.40
2010,04,22,16,11,11.40
2010,04,22,16,12,11.40
2010,04,22,16,13,11.40
2010,04,22,16,14,11.40
2010,04,22,16,15,11.50
2010,04,22,16,16,11.50
2010,04,22,16,17,11.40
2010,04,22,16,18,11.40
2010,04,22,16,19,11.40
2010,04,22,16,20,11.40
2010,04,22,16,21,11.30
2010,04,22,16,22,11.30
2010,04,22,16,23,11.20
2010,04,22,16,24,11.30
2010,04,22,16,25,11.30
2010,04,22,16,26,11.30
2010,04,22,16,27,11.40
2010,04,22,16,28,11.50
2010,04,22,16,29,11.50
2010,04,22,16,30,11.60
2010,04,22,16,31,11.70
2010,04,22,16,32,11.70
2010,04,22,16,33,11.80
2010,04,22,16,34,11.90
2010,04,22,16,35,11.90
2010,04,22,16,36,11.90
2010,04,22,16,37,12.00
2010,04,22,16,38,12.00
2010,04,22,16,39,12.00
2010,04,22,16,40,12.10
2010,04,22,16,41,12.10
2010,04,22,16,42,12.10
2010,04,22,16,43,12.00
2010,04,22,16,44,12.00
2010,04,22,16,45,11.90
2010,04,22,16,46,11.90
2010,04,22,16,47,11.90
2010,04,22,16,48,11.80
2010,04,22,16,49,11.80
2010,04,22,16,50,11.80
2010,04,22,16,51,11.80
2010,04,22,16,52,11.80
2010,04,22,16,53,11.80
2010,04,22,16,54,11.70
2010,04,22,16,55,11.70
2010,04,22,16,56,11.70
2010,04,22,16,57,11.70
2010,04,22,16,58,11.70
2010,04,22,16,59,11.60
2010,04,22,17,00,11.50
2010,04,22,17,01,11.50
2010,04,22,17,02,11.50
2010,04,22,17,03,11.50
2010,04,22,17,04,11.50
2010,04,22,17,05,11.50
2010,04,22,17,06,11.60
2010,04,22,17,07,11.60
2010,04,22,17,08,11.70
2010,04,22,17,09,11.60
2010,04,22,17,10,11.60
2010,04,22,17,11,11.60
2010,04,22,17,12,11.50
2010,04,22,17,13,11.50
2010,04,22,17,14,11.50
2010,04,22,17,15,11.50
2010,04,22,17,16,11.60
2010,04,22,17,17,11.60
2010,04,22,17,18,11.60
2010,04,22,17,19,11.60
2010,04,22,17,20,11.60
2010,04,22,17,21,11.60
2010,04,22,17,22,11.60
2010,04,22,17,23,11.60
2010,04,22,17,24,11.50
2010,04,22,17,25,11.50
2010,04,22,17,26,11.60
2010,04,22,17,27,11.60
2010,04,22,17,28,11.60
2010,04,22,17,29,11.60
2010,04,22,17,30,11.60
2010,04,22,17,31,11.60
2010,04,22,17,32,11.60
2010,04,22,17,33,11.60
2010,04,22,17,34,11.60
2010,04,22,17,35,11.60
2010,04,22,17,36,11.60
2010,04,22,17,37,11.50
2010,04,22,17,38,11.50
2010,04,22,17,39,11.40
2010,04,22,17,40,11.30
2010,04,22,17,41,11.30
2010,04,22,17,42,11.30
2010,04,22,17,43,11.30
2010,04,22,17,44,11.30